YAOGAN-31 D (47532 NORAD) Tracking and Keplerian Element Data

This shows tracking and keplerian element data for the satellite.

Feedback or suggestion? Click here.




ElementValue
Catalog47532
NameYAOGAN-31 D
Epoch Orbit1034
Epoch Day106.15043898
Epoch Year2021
RAAN311.6277
Inclination63.4092
Eccentricity0.0010452
Argument of Perigee303.7013
Mean Anonmoly56.3017
Mean Motion13.45209661
Decay Rate-3.1E-07
L11 47532U 21007A 21106.15043898 -.00000031 00000-0 10000-3 0 9998
L22 47532 63.4092 311.6277 0010452 303.7013 56.3017 13.45209661 10340

Live tracking and technical data element details for YAOGAN-31 D (NORAD 47532). YAOGAN-31 D can be tracked NOW for your location showing map with azimuth and elevation plus other details from your city location.

Track the satellite on the map from your city or location and see movement details for azimuth, elevation, latitude, longitude, range, height, and movement on the map or in text.







IsCatalogInMostPopularTable: catalog: 47532, numindb: 15
Update: records affected: 1



GetName: 47532 YAOGAN-31 D

Hit Count: updated at: Fri, 16 Apr 2021 11:54:37 GMT